Change the Weather History Date:

Thursday, February 28, 2013

  Actual Average Record
Temperature  
Mean Temperature 80 °F -  
Max Temperature 90 °F 89 °F 98 °F (2009)
Min Temperature 70 °F 74 °F 66 °F (2004)
Cooling Degree Days 15    
Growing Degree Days 30 (Base 50)    
Moisture  
Dew Point 69 °F    
Average Humidity 73    
Maximum Humidity 100    
Minimum Humidity 36    
Precipitation  
Precipitation 0.00 in 0.01 in - ()
Sea Level Pressure  
Sea Level Pressure 29.87 in    
Wind  
Wind Speed 3 mph ()    
Max Wind Speed 12 mph    
Max Gust Speed -    
Visibility 3.0 miles    
Events Fog    
Averages and records for this station are not official NWS values.
T = Trace of Precipitation, MM = Missing Value Source: Averaged Metar Reports

Daily Weather History Graph

Daily Weather History Graph

Search for Another Location

Airport or City:

Trip Planner

Search our weather history database for the weather conditions in past years. The results will help you decide how hot, cold, wet, or windy it might be!

Date:

Astronomy

Feb. 28, 2013 Rise Set
Actual Time 6:25 AM IST 6:17 PM IST
Civil Twilight 6:04 AM IST 6:39 PM IST
Nautical Twilight 5:39 AM IST 7:04 PM IST
Astronomical Twilight 5:14 AM IST 7:28 PM IST
Moon 8:33 PM IST (2/28) 7:53 AM IST (2/28)
Length of Visible Light 12h 34m
Length of Day
11h 52m
Waning Gibbous, 93% of the Moon is Illuminated
Feb 28
Waning Gibbous
Mar 5
Last Quarter
Mar 12
New
Mar 19
First Quarter
Mar 27
Full

Hourly Weather History & Observations

Time (IST) Temp. Heat Index Dew Point Humidity Pressure Visibility Wind Dir Wind Speed Gust Speed Precip Events Conditions
12:10 AM 75.2 °F - 71.6 °F 89% 29.92 in 2.5 mi NNE 3.5 mph - N/A   Haze
12:40 AM 75.2 °F - 71.6 °F 89% 29.89 in 2.5 mi North 3.5 mph - N/A   Haze
1:10 AM 73.4 °F - 71.6 °F 94% 29.89 in 2.5 mi Calm Calm - N/A   Haze
1:40 AM 73.4 °F - 71.6 °F 94% 29.86 in 2.5 mi North 2.3 mph - N/A   Haze
2:10 AM 73.4 °F - 71.6 °F 94% 29.86 in 2.5 mi West 3.5 mph - N/A   Haze
2:30 AM 74 °F - 72 °F 91% 29.89 in 2 mi Calm Calm - -  
2:40 AM 73.4 °F - 71.6 °F 94% 29.86 in 2.5 mi SW 2.3 mph - N/A   Haze
3:10 AM 73.4 °F - 71.6 °F 94% 29.86 in 2.5 mi Calm Calm - N/A   Haze
3:40 AM 73.4 °F - 71.6 °F 94% 29.86 in 1.6 mi West 2.3 mph - N/A   Haze
4:10 AM 71.6 °F - 69.8 °F 94% 29.83 in 1.2 mi Calm Calm - N/A   Mist
5:10 AM 71.6 °F - 69.8 °F 94% 29.86 in 0.9 mi West 3.5 mph - N/A   Mist
5:40 AM 71.6 °F - 69.8 °F 94% 29.86 in 0.9 mi West 2.3 mph - N/A   Mist
6:10 AM 71.6 °F - 69.8 °F 94% 29.86 in 0.9 mi West 2.3 mph - N/A   Mist
6:40 AM 71.6 °F - 69.8 °F 94% 29.86 in 0.6 mi Calm Calm - N/A Fog Shallow Fog
7:10 AM 71.6 °F - 69.8 °F 94% 29.89 in 0.6 mi West 2.3 mph - N/A Fog Shallow Fog
7:40 AM 71.6 °F - 71.6 °F 100% 29.89 in 0.6 mi WSW 2.3 mph - N/A Fog Shallow Fog
8:30 AM 77 °F - 71 °F 75% 29.93 in 2 mi West 2.3 mph - -   Haze
8:40 AM 77.0 °F - 71.6 °F 83% 29.92 in 1.6 mi West 3.5 mph - N/A   Haze
9:40 AM 80.6 °F 85.4 °F 73.4 °F 79% 29.92 in 2.5 mi WNW 2.3 mph - N/A   Haze
10:10 AM 82.4 °F 88.2 °F 73.4 °F 74% 29.92 in 2.5 mi NNW 4.6 mph - N/A   Haze
10:40 AM 84.2 °F 90.9 °F 73.4 °F 70% 29.92 in 2.5 mi WNW 4.6 mph - N/A   Haze
11:10 AM 86.0 °F 91.8 °F 71.6 °F 62% 29.92 in 2.2 mi NNW 4.6 mph - N/A   Haze
11:30 AM 88 °F - 67 °F 40% 29.94 in 2 mi ENE 3.5 mph - -   Haze
11:40 AM 87.8 °F 91.4 °F 68.0 °F 52% 29.89 in 2.8 mi NE 6.9 mph - N/A   Haze
12:40 PM 89.6 °F 91.1 °F 64.4 °F 43% 29.89 in 3.7 mi East 11.5 mph - N/A   Partly Cloudy
1:10 PM 87.8 °F 89.4 °F 64.4 °F 46% 29.86 in 4.3 mi ENE 9.2 mph - N/A   Partly Cloudy
1:40 PM 87.8 °F 91.4 °F 68.0 °F 52% 29.86 in 4.3 mi East 11.5 mph - N/A   Unknown
2:10 PM 89.6 °F 92.2 °F 66.2 °F 46% 29.83 in 4.3 mi ENE 11.5 mph - N/A   Unknown
2:30 PM 89 °F - 66 °F 36% 29.86 in 6 mi ESE 3.5 mph - -  
2:40 PM 87.8 °F 90.4 °F 66.2 °F 49% 29.83 in 5.0 mi East 10.4 mph - N/A   Unknown
3:10 PM 87.8 °F 90.4 °F 66.2 °F 49% 29.83 in 5.0 mi ENE 9.2 mph - N/A   Unknown
3:40 PM 87.8 °F 90.4 °F 66.2 °F 49% 29.80 in 5.0 mi East 10.4 mph - N/A   Unknown
4:10 PM 86.0 °F 88.2 °F 66.2 °F 51% 29.80 in 5.0 mi ENE 10.4 mph - N/A   Unknown
4:40 PM 86.0 °F 88.2 °F 66.2 °F 51% 29.80 in 5.0 mi ENE 8.1 mph - N/A   Unknown
5:10 PM 84.2 °F 85.6 °F 64.4 °F 51% 29.83 in 4.3 mi ENE 10.4 mph - N/A   Unknown
5:30 PM 85 °F - 67 °F 46% 29.86 in 6 mi SE 4.6 mph - -  
5:40 PM 84.2 °F 86.6 °F 66.2 °F 55% 29.83 in 4.3 mi ENE 8.1 mph - N/A   Unknown
6:10 PM 80.6 °F 83.2 °F 68.0 °F 65% 29.83 in 3.7 mi ENE 8.1 mph - N/A   Unknown
6:40 PM 78.8 °F - 68.0 °F 69% 29.83 in 3.7 mi ENE 8.1 mph - N/A   Unknown
7:10 PM 77.0 °F - 69.8 °F 78% 29.83 in 3.7 mi NE 4.6 mph - N/A   Unknown
7:40 PM 78.8 °F - 69.8 °F 74% 29.86 in 3.7 mi NE 4.6 mph - N/A   Unknown
8:10 PM 78.8 °F - 69.8 °F 74% 29.89 in 3.7 mi NE 4.6 mph - N/A   Unknown
8:30 PM 80 °F - 70 °F 65% 29.91 in 2 mi Calm Calm - -   Clear
8:40 PM 78.8 °F - 69.8 °F 74% 29.89 in 3.7 mi NNE 4.6 mph - N/A   Unknown
9:10 PM 77.0 °F - 69.8 °F 78% 29.89 in 3.7 mi NNE 3.5 mph - N/A   Unknown
9:40 PM 77.0 °F - 69.8 °F 78% 29.92 in 3.7 mi NNE 3.5 mph - N/A   Unknown
10:10 PM 77.0 °F - 71.6 °F 83% 29.92 in 3.7 mi Calm Calm - N/A   Unknown
10:40 PM 77.0 °F - 71.6 °F 83% 29.92 in 2.5 mi Calm Calm - N/A   Haze
11:10 PM 75.2 °F - 71.6 °F 89% 29.92 in 2.2 mi Calm Calm - N/A   Haze
11:30 PM 75 °F - 71 °F 85% 29.93 in 2 mi Calm Calm - -   Clear
11:40 PM 75.2 °F - 71.6 °F 89% 29.89 in 2.2 mi Calm Calm - N/A   Haze